Location: Bats
(43.6587°N, 0.4584°W)
Time: 09:29:19
(UTC+00:00)

NOAA 6 - Pass Details

Date: 12 January 2026
Orbit: 767 x 780 km, 98.6° (Epoch: 18 February)

Event Time Altitude Azimuth Distance (km) Brightness Sun altitude
Rises 18:57:18 0° 170° (S) 3,223 7.2 -23.0°
Reaches altitude 10° 18:59:36 10° 173° (S) 2,301 6.5 -23.4°
Maximum altitude 19:04:39 71° 257° (WSW) 814 4.2 -24.3°
Drops below altitude 10° 19:09:46 10° 342° (NNW) 2,324 6.6 -25.2°
Sets 19:12:06 0° 345° (NNW) 3,258 7.4 -25.6°
